Portada
METAR-TAF:

METAR-TAF

Aeropuertos :

Aeropuerto Internacional de la Región de Murcia

Murcia, Corvera, España

latitud: 37-48-13N, longitud: 1-07-27W, altitud: 193 m

Observación

El informe se hizo hace 31 minutos, a las 19:30 UTC
Viento 5 kt del oeste-noroeste
Temperatura 10°C
Humedad 100%
Presión 1018 hPa
Visibilidad 10 km o más
Escasas nubes a una altura de 1500 ft

METAR: LEMI 251930Z 29005KT 9999 FEW015 10/10 Q1018

Hora: 21:01 (20:01 UTC)


TAF: falta

Observaciones y pronósticos meteorológicos de más de 4000 aeropuertos (mensajes METAR y TAF).

Los puntos amarillos y rojos representan las estaciones disponibles.

Ponga el ratón en el punto deseado para ver el nombre de la estación.

Haga clic para ver las observaciones y los pronósticos meteorológicos.

Para cambiar el mapa : haga clic en los botones verdes con una cruz de color negro para hacer un zoom, en el botón verde con un guión para alejar o en las flechas verdes para mapas adyacentes.


METAR-TAF: